Wetbulb
34.17 33.82 33.93 33.67 33.39 32.86 32.14 31.27 31.33 31.53 31.52 31.13 30.74 30.16 29.92 29.34 28.93 27.60 27.36 27.14 26.44 26.19 26.20 25.52 24.59 24.67 22.74 22.59 23.55 22.66 21.54 23.25 22.58 21.38 22.62 21.20 19.69 19.96 20.22 20.10 21.27 20.80 21.37
33.08 32.78 32.93 32.20 32.17 31.94 31.26 31.00 31.19 30.83 30.98 30.60 30.13 29.49 28.68 28.01 27.87 27.40 26.95 26.22 25.37 25.39 25.15 24.49 23.24 25.11 21.63 21.70 21.60 21.21 22.16 22.58 23.93 20.65 21.34 19.83 18.76 19.33 18.64 16.77 19.34 20.60 19.90
32.11 32.04 31.42 31.47 31.55 31.36 30.69 30.37 30.27 29.97 29.43 29.46 29.02 28.45 28.21 27.63 27.00 27.05 26.76 26.41 25.54 24.52 23.32 22.26 22.11 22.49 21.34 20.72 20.58 20.56 20.89 23.15 22.77 22.00 19.47 20.14 17.97 17.30 17.16 17.49 16.99 16.59 19.21
31.69 31.13 30.33 30.28 31.26 31.13 30.57 30.18 29.58 29.35 28.58 28.15 27.97 27.85 28.02 27.17 27.27 26.84 26.51 25.44 24.45 24.13 24.31 23.54 22.83 21.84 21.22 20.68 20.86 20.41 21.13 21.02 21.11 19.87 18.93 17.15 16.77 16.71 15.63 12.27 12.80 14.33 13.53
31.65 31.31 30.98 30.68 30.75 30.41 29.51 29.43 28.95 28.19 28.05 27.70 27.16 26.86 26.85 26.84 27.12 26.10 26.22 24.30 22.68 21.61 22.53 23.76 23.70 24.32 25.99 23.77 21.19 19.39 19.60 19.51 19.16 18.08 16.97 16.43 14.07 12.98 10.97 11.17 9.92 9.79 11.57
32.11 31.88 31.50 30.21 29.18 28.74 28.84 28.50 27.86 27.28 26.59 26.45 26.15 25.95 25.48 27.30 30.89 30.76 26.91 23.90 23.59 22.47 21.09 21.97 21.88 22.77 25.25 26.49 26.20 25.14 21.44 18.25 17.56 17.08 14.93 13.37 11.42 10.70 10.77 8.96 7.95 4.82 3.62
31.26 30.32 30.09 29.34 28.51 28.10 28.25 27.65 26.99 26.11 25.80 25.31 25.04 24.98 25.04 25.72 31.90 32.14 29.74 24.64 23.06 21.85 21.37 21.06 21.06 21.40 20.71 20.11 21.20 20.51 20.83 22.32 20.08 15.96 13.09 11.34 10.21 10.57 10.19 7.25 7.03 5.85 6.18
30.75 30.31 29.68 28.91 28.23 27.26 27.02 26.81 26.14 25.65 24.94 24.55 24.56 24.84 24.72 25.19 32.01 32.68 30.77 23.73 22.33 21.62 21.40 21.23 20.54 19.38 19.13 17.42 16.00 15.03 15.05 14.19 13.58 14.22 12.56 11.64 11.93 11.98 10.41 8.99 7.07 4.30 3.41
30.73 30.72 29.47 28.88 27.83 27.03 26.72 26.13 25.15 25.35 24.85 24.74 25.40 24.65 24.26 24.73 31.40 32.51 30.52 23.59 22.85 21.37 21.83 20.87 20.33 19.05 21.09 22.04 16.28 14.45 11.93 12.66 18.45 19.32 18.37 18.33 17.79 16.89 12.19 6.28 -4.34 -5.88 -4.68
31.91 31.68 29.94 29.36 28.49 27.33 27.16 25.23 24.03 23.82 24.99 25.12 25.57 24.24 23.94 24.20 30.61 32.45 29.67 22.55 20.74 19.99 20.51 20.68 22.73 19.93 22.89 23.86 16.48 12.69 5.86 8.37 8.47 5.06 8.85 11.58 10.28 11.02 10.93 7.44 5.17 -6.70 -4.80
28.48 28.00 27.92 27.75 28.32 27.64 25.11 23.26 23.18 22.40 23.82 22.28 22.93 21.98 22.31 23.38 25.47 32.47 32.01 22.13 20.85 18.86 19.03 18.95 20.17 24.73 24.04 23.90 21.51 12.11 8.11 9.04 9.73 4.02 4.29 4.40 4.67 4.71 5.02 5.94 6.47 4.32 -3.73
26.07 25.17 24.65 24.69 26.00 25.33 24.78 21.87 21.02 22.37 21.56 19.92 19.61 19.08 20.70 21.93 25.52 31.27 32.30 28.07 24.38 18.24 17.78 18.56 19.21 24.87 24.50 23.90 18.64 17.05 18.01 10.40 2.47 -0.96 -3.36 -2.41 -0.34 1.03 3.08 4.56 5.54 5.21 5.09
24.83 24.60 22.72 22.26 24.19 24.49 23.92 21.65 21.12 21.10 22.76 20.68 20.68 20.36 18.93 20.87 21.81 29.96 31.81 31.88 27.99 20.14 19.01 19.89 23.02 24.85 25.33 22.53 18.37 19.38 9.53 2.37 -1.73 -7.51 -6.48 -1.66 0.58 2.01 3.73 1.67 2.33 1.28 0.63
21.90 19.17 17.89 20.09 19.87 20.53 23.84 24.17 23.88 22.43 21.47 21.29 20.42 20.32 18.33 18.22 20.18 21.46 25.37 27.99 29.75 26.58 23.33 21.21 22.26 22.29 23.32 17.61 15.35 13.77 4.24 -0.28 -2.16 -5.78 -6.29 -2.43 0.86 -1.98 -4.86 -2.44 -7.60 -6.50 -13.25
16.62 16.47 16.48 17.75 18.55 19.10 21.32 22.87 23.39 21.29 24.55 22.31 22.15 21.35 17.76 18.15 20.81 24.53 24.93 24.17 25.21 25.47 17.51 12.21 11.06 9.29 6.62 5.55 -2.81 -2.98 -3.64 -5.98 -5.57 -7.70 -8.38 -7.81 -5.57 -6.06 -6.46 -8.39 -9.59 -16.95 -15.75
16.38 15.80 17.44 18.27 15.99 17.41 17.63 18.56 26.49 27.69 28.29 29.74 28.82 23.40 19.61 25.06 27.12 28.08 28.92 29.24 29.31 28.71 12.24 10.14 11.22 7.88 8.19 5.07 -0.30 -4.41 -9.32 -6.87 -7.20 -9.56 -12.14 -11.04 -10.02 -9.54 -10.76 -12.66 -12.55 -18.72 -19.38
16.47 15.26 13.83 15.38 15.26 14.87 12.93 16.45 18.97 18.20 29.87 30.54 30.45 30.96 30.49 24.55 27.78 28.77 29.28 29.75 29.80 29.36 10.52 14.78 14.17 9.89 9.09 5.58 3.44 -2.37 -2.46 -3.93 -10.44 -7.25 -7.57 -9.88 -12.53 -15.87 -15.34 -16.76 -14.69 -15.18 -20.14
8.21 11.48 10.03 10.40 10.34 9.42 10.85 13.36 10.74 10.01 13.01 13.90 26.13 30.61 30.73 31.31 29.68 28.73 29.13 29.25 26.66 28.05 6.52 14.59 14.66 10.61 9.08 4.69 1.32 -1.52 -3.79 -12.78 -10.27 -8.80 -10.22 -13.00 -15.02 -16.05 -19.14 -16.67 -16.89 -21.74 -23.64
5.60 7.58 8.22 8.62 10.31 12.49 10.73 9.23 12.02 9.86 13.27 11.51 12.62 23.58 28.37 31.17 31.54 30.02 29.54 26.58 24.03 22.93 11.05 12.65 11.44 4.30 2.72 2.94 0.96 -2.35 -4.00 -6.27 -10.77 -15.07 -14.45 -13.12 -16.00 -18.89 -18.02 -15.91 -16.69 -15.10 -20.33
1.22 5.87 6.21 5.15 4.80 4.66 5.93 7.89 7.29 10.11 14.09 22.24 23.06 24.20 25.69 26.26 27.51 27.72 25.99 25.92 24.16 21.11 15.34 11.93 7.99 7.60 5.16 2.77 -0.37 -2.64 -7.43 -12.58 -11.02 -11.92 -11.82 -13.51 -14.03 -15.97 -13.04 -16.30 -19.02 -18.39 -20.80
0.46 0.95 4.55 2.44 2.46 3.54 4.78 10.17 8.47 12.88 20.77 21.69 21.95 23.58 25.75 24.01 25.15 25.85 22.82 24.30 24.45 21.13 16.30 11.95 8.82 7.87 5.03 0.57 -3.03 -5.38 -5.06 -5.03 -7.13 -8.44 -10.97 -12.24 -15.70 -19.61 -15.91 -14.36 -17.98 -19.24 -19.32
-0.70 -0.32 -0.94 0.97 2.00 3.73 6.62 10.49 17.41 18.90 21.68 22.08 22.36 19.47 25.12 24.62 24.37 23.31 22.28 22.46 24.05 20.40 16.69 13.99 10.77 9.17 5.66 1.44 -0.84 -3.48 -4.68 -4.67 -7.66 -8.81 -9.62 -11.40 -13.89 -16.20 -20.09 -20.54 -18.76 -18.19 -20.43
-1.60 -0.77 -0.33 0.46 2.31 7.22 14.92 18.48 21.41 21.82 21.46 21.53 18.07 12.09 13.69 19.59 22.53 19.62 20.62 19.74 12.90 14.54 13.52 13.72 12.61 8.33 4.45 3.60 2.00 1.37 -0.76 -1.46 -1.18 -4.48 -7.42 -10.40 -12.96 -13.37 -16.47 -16.34 -17.77 -20.28 -20.48
-2.76 -1.44 -0.04 0.34 1.46 4.10 6.49 9.45 10.31 12.41 14.82 13.19 10.24 11.57 14.57 16.34 18.75 17.68 15.21 12.09 13.38 13.36 12.71 12.89 12.05 10.29 5.07 3.18 1.67 1.44 2.69 -0.33 -3.80 -4.42 -5.84 -8.10 -9.32 -10.46 -13.53 -18.26 -17.20 -16.01 -15.67
-3.63 -1.98 -0.35 1.72 1.28 3.13 4.86 6.91 8.71 9.56 10.81 12.89 10.91 10.79 11.68 12.23 15.93 16.39 11.60 10.29 13.27 11.31 10.27 12.15 11.96 10.26 5.28 2.81 0.73 0.08 0.95 3.65 -4.65 -6.32 -7.22 -7.57 -8.03 -10.40 -12.15 -14.61 -14.98 -15.22 -15.42
-5.06 -3.81 -2.15 -0.39 1.10 1.17 3.76 6.44 6.70 4.96 8.03 9.58 9.34 9.05 10.27 10.53 13.25 15.08 10.31 11.43 11.90 11.93 10.50 9.71 9.27 8.15 5.14 3.74 1.35 1.36 0.34 3.65 -2.77 -4.72 -6.47 -6.56 -8.44 -11.13 -13.83 -15.19 -13.29 -13.81 -13.25
MSLP
1023.42 1023.82 1024.11 1024.55 1025.03 1025.52 1025.91 1026.37 1026.62 1026.95 1027.24 1027.55 1027.82 1028.01 1028.10 1028.30 1028.54 1028.85 1029.10 1029.22 1029.49 1029.76 1029.85 1029.91 1030.06 1030.11 1030.08 1030.08 1030.04 1029.93 1029.76 1029.59 1029.84 1030.68 1030.58 1030.97 1031.07 1031.01 1031.04 1030.88 1030.62 1030.43 1030.04
1023.32 1023.75 1024.29 1024.74 1025.21 1025.71 1026.23 1026.74 1026.97 1027.13 1027.34 1027.57 1027.85 1028.06 1028.37 1028.60 1028.71 1028.81 1029.07 1029.31 1029.56 1029.77 1029.98 1030.20 1030.32 1030.21 1030.39 1030.33 1030.15 1030.10 1029.92 1029.80 1029.74 1030.39 1030.80 1031.27 1031.47 1031.40 1031.41 1031.32 1030.99 1030.75 1030.53
1023.40 1023.81 1024.45 1024.93 1025.37 1025.81 1026.25 1026.62 1026.85 1027.22 1027.63 1027.84 1027.99 1028.24 1028.43 1028.49 1028.67 1028.99 1029.22 1029.49 1029.64 1029.84 1030.06 1030.18 1030.26 1030.24 1030.47 1030.54 1030.45 1030.62 1030.31 1029.93 1029.79 1030.11 1030.93 1031.48 1031.91 1032.04 1031.62 1031.43 1031.21 1031.21 1030.77
1023.16 1023.68 1024.21 1024.58 1025.11 1025.53 1025.86 1026.24 1026.79 1027.17 1027.37 1027.77 1027.99 1028.16 1028.36 1028.52 1028.80 1029.05 1029.33 1029.60 1029.76 1029.96 1030.04 1030.14 1030.14 1030.10 1030.18 1030.25 1030.33 1030.36 1030.64 1030.49 1030.43 1030.66 1031.26 1031.80 1032.16 1032.28 1032.32 1032.16 1031.68 1031.61 1031.29
1022.94 1023.34 1023.72 1024.31 1024.86 1025.51 1026.12 1026.70 1026.84 1027.12 1027.48 1027.69 1027.98 1028.20 1028.45 1028.63 1028.77 1029.01 1029.20 1029.36 1029.66 1029.92 1030.11 1030.16 1030.25 1030.26 1030.01 1030.14 1030.33 1030.53 1030.59 1030.67 1030.93 1031.21 1031.73 1032.14 1032.51 1032.69 1032.96 1033.00 1032.60 1032.14 1031.73
1022.65 1022.92 1023.45 1024.12 1024.65 1025.24 1025.86 1026.31 1026.78 1026.99 1027.28 1027.58 1027.73 1028.13 1028.47 1028.43 1028.43 1028.69 1029.29 1029.57 1029.91 1030.20 1030.37 1030.73 1030.76 1030.60 1030.44 1030.26 1030.30 1030.39 1030.57 1030.70 1031.05 1031.41 1032.13 1032.46 1032.94 1033.21 1033.39 1033.38 1033.14 1032.84 1032.49
1022.12 1022.58 1023.16 1023.84 1024.61 1024.98 1025.67 1026.06 1026.58 1026.88 1027.28 1027.55 1027.75 1028.05 1028.25 1028.41 1028.05 1028.26 1028.75 1029.18 1029.74 1030.09 1030.17 1030.31 1031.13 1031.11 1031.19 1031.11 1031.17 1031.32 1031.27 1030.99 1031.09 1031.46 1032.20 1032.78 1033.11 1033.33 1033.48 1033.57 1033.45 1033.44 1033.14
1021.72 1022.22 1022.88 1023.54 1024.14 1024.83 1025.35 1025.48 1026.09 1026.62 1027.09 1027.33 1027.55 1027.79 1027.88 1027.87 1027.69 1027.84 1028.40 1028.82 1029.27 1029.72 1029.88 1029.96 1030.72 1030.88 1031.16 1031.33 1031.72 1031.97 1032.13 1032.12 1032.03 1032.09 1032.58 1033.04 1033.21 1033.37 1033.48 1033.59 1033.67 1033.66 1033.37
1021.38 1021.71 1022.40 1023.05 1023.65 1024.46 1025.00 1025.35 1026.00 1026.41 1026.57 1026.78 1027.06 1027.51 1027.76 1027.76 1027.36 1027.30 1027.84 1028.51 1028.90 1029.30 1029.57 1029.63 1030.08 1030.78 1030.70 1030.75 1031.58 1032.11 1032.44 1032.52 1031.98 1032.12 1032.43 1032.61 1032.73 1032.92 1033.45 1033.99 1034.16 1034.04 1033.80
1020.37 1020.73 1021.65 1022.32 1023.07 1023.67 1024.09 1024.78 1025.37 1025.66 1025.90 1026.36 1026.58 1026.88 1027.18 1027.31 1027.19 1027.12 1027.61 1028.39 1028.75 1029.06 1029.39 1029.59 1029.83 1030.22 1030.22 1030.25 1031.36 1032.12 1032.79 1032.86 1033.01 1033.44 1033.34 1033.34 1033.61 1033.48 1033.57 1033.81 1033.96 1034.19 1034.24
1019.81 1020.43 1021.40 1021.97 1022.47 1022.94 1023.63 1024.16 1024.74 1025.35 1025.80 1026.21 1026.62 1026.65 1026.85 1026.85 1026.90 1026.65 1026.90 1027.96 1028.26 1028.78 1029.11 1029.66 1029.69 1029.54 1029.74 1030.10 1030.89 1031.94 1032.26 1032.73 1032.68 1033.56 1033.80 1034.02 1034.05 1034.00 1034.01 1033.98 1033.84 1033.85 1034.09
1020.26 1021.00 1021.55 1021.92 1022.49 1023.04 1023.26 1023.83 1024.48 1025.07 1025.65 1025.95 1026.41 1026.56 1026.47 1026.35 1026.42 1026.29 1026.31 1027.19 1027.83 1028.34 1028.91 1029.10 1029.52 1029.15 1029.36 1029.80 1030.78 1031.50 1031.35 1032.56 1033.34 1033.78 1034.09 1034.21 1034.15 1034.10 1034.02 1033.90 1033.75 1033.72 1033.69
1020.35 1021.04 1021.12 1021.05 1021.33 1021.76 1022.58 1023.21 1023.83 1024.32 1024.57 1025.07 1025.89 1026.24 1026.08 1026.02 1026.04 1025.84 1025.63 1025.85 1026.88 1027.90 1028.56 1028.71 1028.79 1028.67 1028.95 1029.53 1030.74 1030.68 1032.04 1033.00 1033.42 1034.19 1034.38 1034.14 1033.93 1033.83 1033.77 1033.86 1033.80 1033.79 1033.64
1020.38 1020.78 1021.43 1021.43 1021.52 1021.55 1021.87 1022.28 1022.70 1023.24 1023.82 1024.33 1024.85 1025.16 1025.18 1025.44 1025.43 1025.56 1025.48 1025.41 1025.64 1026.56 1027.59 1028.10 1028.21 1028.57 1028.84 1029.74 1030.27 1030.85 1032.44 1033.10 1033.32 1033.68 1033.95 1033.81 1033.70 1034.00 1034.06 1034.06 1034.30 1034.40 1034.34
1020.48 1021.10 1021.29 1021.55 1021.84 1022.07 1021.87 1021.92 1022.10 1022.31 1022.56 1023.07 1023.40 1023.85 1024.30 1024.45 1024.02 1024.36 1024.51 1024.80 1025.14 1025.77 1027.35 1028.05 1028.20 1028.90 1029.65 1030.44 1031.16 1031.79 1032.85 1033.50 1033.44 1033.56 1033.78 1033.90 1033.98 1034.15 1034.28 1034.42 1034.52 1034.72 1034.97
1021.03 1021.27 1021.42 1021.39 1021.66 1021.88 1022.12 1022.22 1021.84 1021.96 1022.14 1022.27 1022.44 1022.63 1022.81 1022.68 1023.06 1023.19 1023.55 1023.91 1024.37 1025.11 1026.71 1027.41 1028.04 1028.64 1029.43 1030.32 1031.36 1032.17 1032.67 1033.02 1033.16 1033.33 1033.54 1033.80 1034.04 1034.24 1034.41 1034.54 1034.75 1035.04 1035.36
1021.06 1021.26 1021.71 1021.73 1021.86 1021.88 1022.08 1022.22 1021.96 1021.60 1021.71 1021.82 1021.80 1021.92 1021.88 1022.12 1022.57 1022.53 1022.79 1023.09 1023.48 1024.24 1025.47 1026.35 1026.99 1027.76 1028.53 1029.41 1030.37 1031.39 1031.98 1032.30 1032.71 1032.94 1033.08 1033.42 1033.80 1034.09 1034.42 1034.64 1034.79 1035.03 1035.18
1021.65 1021.44 1021.80 1021.93 1021.93 1021.99 1022.03 1022.03 1021.88 1022.08 1021.98 1021.44 1021.17 1021.11 1021.16 1021.22 1021.67 1022.02 1022.24 1022.53 1022.85 1023.18 1024.82 1025.42 1026.06 1026.75 1027.56 1028.49 1029.41 1030.32 1031.02 1031.82 1032.24 1032.40 1032.55 1032.82 1033.36 1033.77 1034.33 1034.40 1034.73 1034.97 1034.95
1021.76 1021.56 1021.60 1021.70 1021.61 1021.53 1021.64 1021.51 1021.54 1021.51 1021.42 1021.14 1021.00 1020.78 1020.53 1020.59 1020.80 1021.25 1021.59 1021.71 1021.97 1022.68 1023.96 1024.68 1025.35 1026.29 1026.98 1027.69 1028.32 1029.11 1029.88 1030.68 1031.13 1031.57 1031.79 1032.19 1032.74 1033.31 1033.69 1033.71 1034.06 1034.26 1034.50
1021.63 1021.66 1021.72 1021.96 1022.06 1021.84 1021.61 1021.35 1021.24 1021.04 1020.92 1020.85 1020.55 1020.32 1020.23 1020.44 1020.25 1020.33 1020.69 1021.03 1021.43 1022.06 1022.76 1023.85 1024.69 1025.41 1026.11 1026.79 1027.47 1028.19 1029.03 1029.77 1030.21 1030.67 1030.96 1031.36 1031.93 1032.41 1032.62 1032.98 1033.48 1033.75 1033.82
1021.63 1021.74 1021.82 1022.11 1021.84 1021.49 1021.27 1021.23 1020.94 1020.80 1020.68 1020.46 1020.23 1020.08 1020.11 1020.13 1019.84 1019.78 1020.01 1020.23 1020.59 1021.17 1021.96 1022.89 1023.67 1024.39 1025.06 1025.73 1026.41 1027.26 1028.03 1028.51 1028.97 1029.47 1029.96 1030.45 1031.14 1031.78 1031.67 1032.04 1032.47 1032.82 1033.13
1021.55 1021.97 1022.31 1022.17 1021.52 1021.40 1021.26 1020.76 1020.58 1020.39 1020.11 1019.94 1019.73 1019.76 1019.82 1019.73 1019.50 1019.50 1019.64 1019.75 1019.89 1020.30 1020.96 1021.73 1022.51 1023.07 1023.66 1024.53 1025.26 1026.02 1026.74 1027.25 1027.70 1028.28 1028.82 1029.39 1030.09 1030.58 1030.99 1031.51 1031.94 1032.16 1032.61
1021.92 1022.21 1022.14 1021.80 1021.58 1021.41 1020.90 1020.49 1020.22 1019.98 1019.82 1019.67 1019.62 1019.76 1019.85 1019.51 1019.19 1019.19 1019.22 1019.35 1019.58 1020.02 1020.53 1020.98 1021.48 1022.17 1022.80 1023.26 1023.75 1024.30 1024.96 1025.31 1025.69 1026.68 1027.52 1028.29 1029.03 1029.58 1030.11 1030.66 1031.11 1031.63 1031.94
1021.90 1022.11 1022.00 1021.73 1021.49 1021.08 1020.64 1020.32 1020.09 1019.91 1019.73 1019.53 1019.50 1019.49 1019.43 1019.19 1018.99 1018.88 1018.84 1018.91 1019.17 1019.60 1019.98 1020.26 1020.55 1020.89 1021.63 1022.24 1022.70 1023.11 1023.45 1023.87 1024.64 1025.43 1026.10 1026.97 1027.67 1028.36 1029.00 1029.59 1030.03 1030.41 1030.79
1021.87 1022.06 1021.94 1021.52 1021.13 1020.80 1020.48 1020.17 1019.93 1019.71 1019.50 1019.37 1019.22 1019.16 1018.98 1018.85 1018.74 1018.60 1018.53 1018.57 1018.79 1019.02 1019.23 1019.35 1019.64 1019.96 1020.57 1021.17 1021.72 1022.15 1022.52 1023.03 1023.77 1024.44 1025.22 1025.87 1026.47 1027.15 1027.82 1028.48 1029.09 1029.66 1030.05
1021.76 1021.68 1021.58 1021.34 1021.06 1020.81 1020.48 1020.06 1019.68 1019.46 1019.27 1019.07 1018.86 1018.75 1018.64 1018.54 1018.33 1018.17 1018.11 1018.26 1018.36 1018.41 1018.53 1018.73 1018.84 1019.06 1019.49 1020.00 1020.46 1021.00 1021.64 1022.22 1022.97 1023.57 1024.29 1025.01 1025.73 1026.32 1026.92 1027.53 1028.23 1028.77 1029.12
Wind_Speed
6 5 7 6 6 5 5 5 5 5 5 5 5 5 5 5 4 5 5 4 5 5 4 5 5 4 3 4 3 3 3 2 2 1 2 1 3 3 4 4 4 5 4
6 6 6 6 6 6 5 5 5 6 5 6 5 5 4 4 4 5 4 4 5 5 4 5 4 3 4 3 3 3 3 3 1 3 1 1 3 3 3 3 5 5 4
6 6 6 6 6 6 6 6 6 6 5 5 5 5 5 5 5 4 5 4 5 5 4 4 3 4 3 1 2 3 3 3 2 3 2 2 2 3 2 2 4 5 4
7 7 8 8 7 6 7 7 6 5 6 5 5 5 5 5 4 5 5 5 5 4 4 4 3 3 3 2 3 2 2 3 3 3 3 2 2 2 2 3 4 3 3
8 7 8 6 6 6 5 5 5 5 5 5 5 5 4 4 4 5 5 5 5 5 4 4 4 3 4 2 2 2 1 2 2 3 2 1 1 2 3 3 3 4 2
9 9 7 8 7 7 6 6 6 6 6 6 5 5 5 3 9 10 7 5 4 5 4 3 3 4 6 10 9 8 4 2 2 2 1 1 1 1 1 1 2 3 4
8 7 8 7 7 7 7 7 7 7 5 6 5 5 6 5 11 12 12 5 5 5 5 6 3 2 4 4 7 8 9 10 6 3 3 2 2 1 1 1 1 1 3
8 8 7 8 7 7 8 9 7 5 6 5 6 6 6 5 11 13 13 6 5 5 6 6 5 5 5 5 4 4 4 3 5 5 4 3 3 3 1 1 1 4 4
9 10 8 9 9 9 9 8 5 6 6 6 4 6 6 6 13 14 12 6 6 6 5 6 6 5 9 9 4 4 3 2 5 8 7 6 4 5 4 2 2 3 3
10 11 8 9 9 10 9 8 4 3 4 5 6 6 7 7 13 14 12 4 5 4 4 5 10 7 10 10 5 5 4 3 3 2 3 4 4 3 4 2 1 2 0
5 6 6 7 9 8 6 5 6 5 5 5 6 4 6 7 8 17 18 6 5 5 5 4 4 11 10 9 8 4 6 5 5 3 2 1 1 1 0 0 1 2 2
6 5 6 6 5 5 8 5 5 6 6 6 5 5 5 5 11 17 18 15 11 6 6 4 5 13 10 9 4 8 10 7 3 3 1 1 1 2 2 1 2 3 4
6 6 6 8 9 8 9 8 6 7 7 7 6 6 5 5 5 19 19 19 17 7 5 9 14 14 13 10 8 9 6 4 3 2 3 2 2 2 2 1 2 2 4
4 3 3 5 5 6 5 6 7 8 7 6 7 7 5 5 6 6 7 9 17 13 13 8 10 11 7 11 8 6 3 3 4 3 3 2 1 0 1 0 0 2 2
3 2 3 2 4 4 5 6 7 4 8 7 8 7 6 8 10 14 14 9 7 10 7 3 2 2 3 3 2 2 3 3 3 2 3 2 2 1 2 0 1 1 0
3 3 4 4 2 2 3 4 11 13 14 16 13 10 5 10 12 19 23 23 21 19 3 4 5 5 7 6 5 4 2 4 3 3 3 3 3 3 2 1 1 1 2
3 1 1 1 3 4 3 4 5 4 16 16 16 18 18 10 16 16 19 23 23 19 4 8 9 8 8 7 7 6 6 6 4 4 4 4 3 2 2 2 2 2 2
4 4 3 3 3 2 3 4 2 3 4 3 12 16 17 19 17 16 18 17 10 17 4 8 8 8 8 8 7 6 5 3 4 4 4 4 4 4 3 3 3 3 2
2 2 3 3 3 4 4 4 4 4 4 3 2 7 9 18 19 18 18 9 9 10 6 7 6 6 6 6 6 5 6 6 5 4 4 4 4 4 4 4 3 4 3
2 4 3 2 2 2 2 3 3 3 3 5 5 6 3 5 8 9 9 9 8 7 6 7 7 6 7 7 7 6 5 4 5 5 5 4 4 5 5 4 4 3 4
1 2 3 2 3 3 3 4 3 3 5 5 5 5 12 8 9 7 8 9 9 8 8 8 7 7 7 6 5 6 6 6 6 6 5 5 5 4 4 3 3 4 3
1 1 1 3 2 2 3 3 4 5 6 5 4 2 14 7 7 6 7 8 8 7 8 9 7 8 8 9 8 8 8 8 6 5 6 5 5 5 3 3 3 3 3
1 2 2 2 2 4 3 3 4 4 5 5 3 3 4 6 6 5 7 6 4 5 6 7 8 7 6 7 8 9 9 10 9 8 7 6 6 5 5 4 4 3 4
1 2 2 3 2 2 2 3 4 5 5 4 4 4 5 6 7 6 5 4 5 6 6 7 7 10 8 8 7 8 8 5 6 8 9 7 7 6 5 4 4 5 4
2 2 3 3 2 3 3 4 4 4 4 5 4 4 5 5 7 6 5 4 6 6 7 8 7 10 11 12 11 11 10 12 9 8 6 7 7 8 5 4 4 4 4
2 2 2 2 2 3 3 4 4 3 4 4 4 5 5 6 7 6 4 5 6 7 7 7 8 11 11 11 12 12 12 13 11 12 8 7 7 5 5 5 7 3 3
Wind_Direction
149 144 145 151 144 136 142 146 143 130 139 132 124 123 129 126 109 96 89 88 83 74 60 70 62 55 47 32 23 17 18 7 88 48 64 60 45 21 21 6 18 17 1
161 156 158 143 143 147 142 145 150 150 145 140 145 135 128 122 129 131 122 102 103 90 71 67 53 56 53 38 33 26 15 6 97 138 107 85 46 357 10 26 15 14 346
161 157 153 158 161 165 157 157 161 149 145 144 141 151 163 159 141 126 120 120 104 96 97 90 73 71 63 46 36 14 4 34 59 132 116 62 67 7 339 358 8 9 340
167 169 175 177 177 169 169 168 159 164 158 160 165 169 174 159 138 139 136 124 119 122 109 104 100 112 153 130 74 44 32 46 52 79 80 86 38 35 35 348 343 351 331
183 184 190 176 168 163 157 169 161 166 171 167 172 179 162 154 165 161 153 150 147 132 124 114 101 104 99 116 108 68 93 80 85 82 87 104 35 15 12 340 298 319 305
192 199 169 171 174 175 170 171 172 175 181 184 184 173 177 186 194 177 163 158 157 154 132 107 109 73 90 85 83 81 84 126 153 113 106 143 115 43 356 316 311 3 335
194 175 181 173 179 178 172 173 184 185 180 196 187 180 199 202 200 189 177 161 169 168 165 150 171 134 99 96 91 74 47 65 82 119 136 149 156 184 167 307 349 272 261
192 183 178 180 182 172 183 189 184 177 188 188 195 198 200 205 206 195 183 167 180 182 179 165 182 169 183 153 134 102 84 81 65 74 95 127 135 127 95 87 340 308 295
194 198 186 180 185 186 197 191 176 177 189 190 185 198 197 207 210 203 185 179 187 191 189 175 172 180 203 189 154 153 125 49 76 113 130 121 101 116 99 90 351 33 323
199 202 181 184 186 194 190 179 168 177 184 183 201 195 198 200 213 207 189 166 178 182 179 179 184 187 206 209 157 163 190 204 136 57 40 78 61 47 61 75 155 136 272
149 148 170 182 194 190 161 161 168 173 169 194 208 202 202 196 211 211 201 183 184 178 181 187 193 202 204 211 193 172 199 159 173 136 119 101 72 66 83 138 209 169 175
124 146 174 178 173 173 175 169 163 169 189 198 198 224 221 199 206 219 214 195 199 178 197 182 193 207 196 211 170 218 211 140 119 121 126 224 223 240 234 224 245 239 260
156 189 191 181 185 178 178 179 176 183 198 196 199 220 219 208 212 218 220 220 205 190 179 196 201 210 194 193 189 203 114 140 142 141 200 217 202 212 258 319 312 324 290
168 194 198 184 183 183 188 187 190 193 195 191 203 217 209 198 210 212 213 226 220 204 200 205 202 210 190 163 177 174 147 169 172 180 198 205 180 199 271 274 354 352 359
181 198 193 178 188 194 214 200 203 212 195 194 212 202 188 214 219 210 204 204 206 187 148 117 110 94 117 128 64 121 141 159 182 183 172 185 203 191 246 140 119 24 115
194 201 211 198 183 181 183 241 234 228 219 227 219 199 218 226 225 220 220 216 212 192 129 163 181 174 183 182 187 193 205 203 211 181 176 185 201 203 219 280 160 158 214
229 226 228 198 204 195 204 214 239 261 241 235 237 239 231 211 238 236 229 223 219 200 186 193 192 189 197 190 193 191 211 208 171 198 192 196 194 206 185 226 224 216 262
242 242 200 212 203 201 204 221 178 189 235 248 248 240 242 243 219 227 234 224 216 214 159 194 202 189 196 195 190 199 205 182 197 203 198 189 194 187 199 228 207 213 221
256 247 225 236 228 218 204 197 209 207 229 228 272 254 254 241 235 211 224 224 214 215 180 197 195 179 187 193 195 193 191 198 192 186 205 193 190 177 224 224 221 223 209
290 272 244 231 241 236 216 208 211 205 222 242 240 245 228 237 228 211 205 219 215 210 179 193 190 191 194 194 192 190 189 188 197 200 208 193 191 190 219 207 201 212 214
278 304 278 264 234 217 204 218 200 212 244 240 239 245 251 239 238 220 203 209 213 204 190 188 184 194 194 190 177 179 197 206 202 201 192 199 173 205 208 201 198 214 218
18 312 266 250 248 239 235 208 219 229 234 242 244 216 257 258 233 221 214 217 218 193 190 189 190 194 191 188 186 185 196 207 198 193 197 185 192 203 174 180 204 206 206
290 271 273 269 241 245 235 235 247 250 256 253 243 220 228 247 254 220 217 214 179 185 181 188 195 194 187 189 185 186 191 203 205 181 186 186 192 196 182 194 186 203 207
277 267 266 274 280 263 255 255 251 248 249 241 231 228 236 240 245 232 221 199 188 192 190 196 199 199 190 192 189 193 201 185 162 182 175 178 190 183 173 171 184 207 224
304 288 276 272 267 255 259 254 250 245 247 251 242 233 233 236 248 244 223 205 210 199 202 199 201 205 196 190 191 196 198 190 174 166 170 172 180 176 172 168 167 193 210
298 294 291 308 298 279 261 264 256 242 250 253 242 238 239 239 247 249 222 218 220 220 214 208 211 206 198 198 201 193 186 189 177 176 166 170 173 171 162 171 183 188 200